Year,Month,Day,Hour,Minute,Value (Times are PST for temperature in C)
2015,07,02,00,00,19.40
2015,07,02,00,01,19.40
2015,07,02,00,02,19.40
2015,07,02,00,03,19.40
2015,07,02,00,04,19.30
2015,07,02,00,05,19.30
2015,07,02,00,06,19.30
2015,07,02,00,07,19.30
2015,07,02,00,08,19.30
2015,07,02,00,09,19.30
2015,07,02,00,10,19.30
2015,07,02,00,11,19.20
2015,07,02,00,12,19.20
2015,07,02,00,13,19.20
2015,07,02,00,14,19.20
2015,07,02,00,15,19.20
2015,07,02,00,16,19.10
2015,07,02,00,17,19.10
2015,07,02,00,18,19.10
2015,07,02,00,19,19.10
2015,07,02,00,20,19.00
2015,07,02,00,21,19.00
2015,07,02,00,22,19.00
2015,07,02,00,23,18.90
2015,07,02,00,24,18.90
2015,07,02,00,25,18.90
2015,07,02,00,26,18.90
2015,07,02,00,27,18.90
2015,07,02,00,28,18.90
2015,07,02,00,29,18.90
2015,07,02,00,30,18.90
2015,07,02,00,31,18.90
2015,07,02,00,32,18.90
2015,07,02,00,33,18.80
2015,07,02,00,34,18.80
2015,07,02,00,35,18.80
2015,07,02,00,36,18.80
2015,07,02,00,37,18.80
2015,07,02,00,38,18.80
2015,07,02,00,39,18.70
2015,07,02,00,40,18.70
2015,07,02,00,41,18.70
2015,07,02,00,42,18.70
2015,07,02,00,43,18.70
2015,07,02,00,44,18.70
2015,07,02,00,45,18.60
2015,07,02,00,46,18.60
2015,07,02,00,47,18.60
2015,07,02,00,48,18.60
2015,07,02,00,49,18.60
2015,07,02,00,50,18.60
2015,07,02,00,51,18.60
2015,07,02,00,52,18.60
2015,07,02,00,53,18.50
2015,07,02,00,54,18.50
2015,07,02,00,55,18.50
2015,07,02,00,56,18.50
2015,07,02,00,57,18.50
2015,07,02,00,58,18.50
2015,07,02,00,59,18.50
2015,07,02,01,00,18.40
2015,07,02,01,01,18.40
2015,07,02,01,02,18.40
2015,07,02,01,03,18.40
2015,07,02,01,04,18.40
2015,07,02,01,05,18.40
2015,07,02,01,06,18.40
2015,07,02,01,07,18.30
2015,07,02,01,08,18.30
2015,07,02,01,09,18.30
2015,07,02,01,10,18.30
2015,07,02,01,11,18.30
2015,07,02,01,12,18.30
2015,07,02,01,13,18.30
2015,07,02,01,14,18.30
2015,07,02,01,15,18.30
2015,07,02,01,16,18.30
2015,07,02,01,17,18.30
2015,07,02,01,18,18.30
2015,07,02,01,19,18.30
2015,07,02,01,20,18.30
2015,07,02,01,21,18.30
2015,07,02,01,22,18.30
2015,07,02,01,23,18.20
2015,07,02,01,24,18.20
2015,07,02,01,25,18.20
2015,07,02,01,26,18.20
2015,07,02,01,27,18.20
2015,07,02,01,28,18.10
2015,07,02,01,29,18.10
2015,07,02,01,30,18.10
2015,07,02,01,31,18.10
2015,07,02,01,32,18.10
2015,07,02,01,33,18.10
2015,07,02,01,34,18.10
2015,07,02,01,35,18.10
2015,07,02,01,36,18.00
2015,07,02,01,37,18.00
2015,07,02,01,38,18.00
2015,07,02,01,39,18.00
2015,07,02,01,40,17.90
2015,07,02,01,41,17.90
2015,07,02,01,42,17.90
2015,07,02,01,43,17.90
2015,07,02,01,44,17.90
2015,07,02,01,45,17.90
2015,07,02,01,46,17.90
2015,07,02,01,47,17.90
2015,07,02,01,48,17.80
2015,07,02,01,49,17.80
2015,07,02,01,50,17.80
2015,07,02,01,51,17.80
2015,07,02,01,52,17.80
2015,07,02,01,53,17.70
2015,07,02,01,54,17.70
2015,07,02,01,55,17.70
2015,07,02,01,56,17.70
2015,07,02,01,57,17.70
2015,07,02,01,58,17.70
2015,07,02,01,59,17.70
2015,07,02,02,00,17.70
2015,07,02,02,01,17.70
2015,07,02,02,02,17.70
2015,07,02,02,03,17.70
2015,07,02,02,04,17.70
2015,07,02,02,05,17.70
2015,07,02,02,06,17.70
2015,07,02,02,07,17.70
2015,07,02,02,08,17.70
2015,07,02,02,09,17.70
2015,07,02,02,10,17.70
2015,07,02,02,11,17.70
2015,07,02,02,12,17.70
2015,07,02,02,13,17.70
2015,07,02,02,14,17.60
2015,07,02,02,15,17.60
2015,07,02,02,16,17.60
2015,07,02,02,17,17.60
2015,07,02,02,18,17.60
2015,07,02,02,19,17.60
2015,07,02,02,20,17.50
2015,07,02,02,21,17.50
2015,07,02,02,22,17.50
2015,07,02,02,23,17.50
2015,07,02,02,24,17.50
2015,07,02,02,25,17.50
2015,07,02,02,26,17.50
2015,07,02,02,27,17.50
2015,07,02,02,28,17.50
2015,07,02,02,29,17.50
2015,07,02,02,30,17.50
2015,07,02,02,31,17.50
2015,07,02,02,32,17.50
2015,07,02,02,33,17.50
2015,07,02,02,34,17.50
2015,07,02,02,35,17.50
2015,07,02,02,36,17.50
2015,07,02,02,37,17.40
2015,07,02,02,38,17.40
2015,07,02,02,39,17.40
2015,07,02,02,40,17.40
2015,07,02,02,41,17.40
2015,07,02,02,42,17.40
2015,07,02,02,43,17.40
2015,07,02,02,44,17.40
2015,07,02,02,45,17.40
2015,07,02,02,46,17.40
2015,07,02,02,47,17.40
2015,07,02,02,48,17.40
2015,07,02,02,49,17.30
2015,07,02,02,50,17.30
2015,07,02,02,51,17.30
2015,07,02,02,52,17.30
2015,07,02,02,53,17.30
2015,07,02,02,54,17.20
2015,07,02,02,55,17.20
2015,07,02,02,56,17.20
2015,07,02,02,57,17.20
2015,07,02,02,58,17.20
2015,07,02,02,59,17.10
2015,07,02,03,00,17.10
2015,07,02,03,01,17.10
2015,07,02,03,02,17.10
2015,07,02,03,03,17.00
2015,07,02,03,04,17.00
2015,07,02,03,05,17.00
2015,07,02,03,06,17.00
2015,07,02,03,07,17.00
2015,07,02,03,08,17.00
2015,07,02,03,09,16.90
2015,07,02,03,10,16.90
2015,07,02,03,11,16.90
2015,07,02,03,12,16.90
2015,07,02,03,13,16.90
2015,07,02,03,14,16.90
2015,07,02,03,15,16.90
2015,07,02,03,16,16.90
2015,07,02,03,17,16.90
2015,07,02,03,18,16.90
2015,07,02,03,19,16.80
2015,07,02,03,20,16.80
2015,07,02,03,21,16.80
2015,07,02,03,22,16.80
2015,07,02,03,23,16.80
2015,07,02,03,24,16.80
2015,07,02,03,25,16.80
2015,07,02,03,26,16.80
2015,07,02,03,27,16.80
2015,07,02,03,28,16.80
2015,07,02,03,29,16.80
2015,07,02,03,30,16.80
2015,07,02,03,31,16.80
2015,07,02,03,32,16.80
2015,07,02,03,33,16.80
2015,07,02,03,34,16.80
2015,07,02,03,35,16.80
2015,07,02,03,36,16.80
2015,07,02,03,37,16.80
2015,07,02,03,38,16.80
2015,07,02,03,39,16.70
2015,07,02,03,40,16.70
2015,07,02,03,41,16.70
2015,07,02,03,42,16.70
2015,07,02,03,43,16.70
2015,07,02,03,44,16.70
2015,07,02,03,45,16.70
2015,07,02,03,46,16.70
2015,07,02,03,47,16.70
2015,07,02,03,48,16.70
2015,07,02,03,49,16.70
2015,07,02,03,50,16.70
2015,07,02,03,51,16.70
2015,07,02,03,52,16.70
2015,07,02,03,53,16.70
2015,07,02,03,54,16.70
2015,07,02,03,55,16.70
2015,07,02,03,56,16.70
2015,07,02,03,57,16.60
2015,07,02,03,58,16.60
2015,07,02,03,59,16.60
2015,07,02,04,00,16.60
2015,07,02,04,01,16.60
2015,07,02,04,02,16.60
2015,07,02,04,03,16.60
2015,07,02,04,04,16.60
2015,07,02,04,05,16.60
2015,07,02,04,06,16.60
2015,07,02,04,07,16.60
2015,07,02,04,08,16.60
2015,07,02,04,09,16.60
2015,07,02,04,10,16.60
2015,07,02,04,11,16.60
2015,07,02,04,12,16.60
2015,07,02,04,13,16.50
2015,07,02,04,14,16.50
2015,07,02,04,15,16.50
2015,07,02,04,16,16.50
2015,07,02,04,17,16.40
2015,07,02,04,18,16.40
2015,07,02,04,19,16.40
2015,07,02,04,20,16.30
2015,07,02,04,21,16.30
2015,07,02,04,22,16.30
2015,07,02,04,23,16.30
2015,07,02,04,24,16.20
2015,07,02,04,25,16.20
2015,07,02,04,26,16.20
2015,07,02,04,27,16.10
2015,07,02,04,28,16.10
2015,07,02,04,29,16.10
2015,07,02,04,30,16.10
2015,07,02,04,31,16.00
2015,07,02,04,32,16.00
2015,07,02,04,33,16.00
2015,07,02,04,34,16.00
2015,07,02,04,35,15.90
2015,07,02,04,36,15.90
2015,07,02,04,37,15.90
2015,07,02,04,38,15.90
2015,07,02,04,39,15.90
2015,07,02,04,40,15.90
2015,07,02,04,41,15.90
2015,07,02,04,42,15.90
2015,07,02,04,43,15.90
2015,07,02,04,44,15.90
2015,07,02,04,45,15.90
2015,07,02,04,46,15.90
2015,07,02,04,47,15.90
2015,07,02,04,48,15.90
2015,07,02,04,49,15.90
2015,07,02,04,50,15.90
2015,07,02,04,51,15.90
2015,07,02,04,52,15.90
2015,07,02,04,53,15.90
2015,07,02,04,54,15.90
2015,07,02,04,55,15.90
2015,07,02,04,56,15.90
2015,07,02,04,57,15.90
2015,07,02,04,58,15.90
2015,07,02,04,59,15.90
2015,07,02,05,00,15.90
2015,07,02,05,01,15.90
2015,07,02,05,02,15.90
2015,07,02,05,03,15.90
2015,07,02,05,04,15.90
2015,07,02,05,05,15.90
2015,07,02,05,06,15.90
2015,07,02,05,07,15.90
2015,07,02,05,08,15.90
2015,07,02,05,09,15.90
2015,07,02,05,10,15.90
2015,07,02,05,11,15.90
2015,07,02,05,12,15.90
2015,07,02,05,13,15.90
2015,07,02,05,14,15.90
2015,07,02,05,15,15.90
2015,07,02,05,16,15.90
2015,07,02,05,17,16.00
2015,07,02,05,18,16.00
2015,07,02,05,19,16.00
2015,07,02,05,20,16.00
2015,07,02,05,21,16.00
2015,07,02,05,22,16.00
2015,07,02,05,23,16.10
2015,07,02,05,24,16.10
2015,07,02,05,25,16.10
2015,07,02,05,26,16.10
2015,07,02,05,27,16.10
2015,07,02,05,28,16.00
2015,07,02,05,29,16.00
2015,07,02,05,30,16.00
2015,07,02,05,31,16.00
2015,07,02,05,32,16.00
2015,07,02,05,33,16.00
2015,07,02,05,34,16.00
2015,07,02,05,35,16.00
2015,07,02,05,36,16.00
2015,07,02,05,37,15.90
2015,07,02,05,38,15.90
2015,07,02,05,39,15.90
2015,07,02,05,40,16.00
2015,07,02,05,41,16.00
2015,07,02,05,42,16.00
2015,07,02,05,43,16.00
2015,07,02,05,44,15.90
2015,07,02,05,45,15.90
2015,07,02,05,46,15.90
2015,07,02,05,47,15.90
2015,07,02,05,48,15.90
2015,07,02,05,49,15.80
2015,07,02,05,50,15.80
2015,07,02,05,51,15.80
2015,07,02,05,52,15.80
2015,07,02,05,53,15.80
2015,07,02,05,54,15.80
2015,07,02,05,55,15.80
2015,07,02,05,56,15.80
2015,07,02,05,57,15.80
2015,07,02,05,58,15.80
2015,07,02,05,59,15.80
2015,07,02,06,00,15.80
2015,07,02,06,01,15.80
2015,07,02,06,02,15.80
2015,07,02,06,03,15.80
2015,07,02,06,04,15.80
2015,07,02,06,05,15.80
2015,07,02,06,06,15.80
2015,07,02,06,07,15.80
2015,07,02,06,08,15.80
2015,07,02,06,09,15.80
2015,07,02,06,10,15.80
2015,07,02,06,11,15.80
2015,07,02,06,12,15.80
2015,07,02,06,13,15.80
2015,07,02,06,14,15.80
2015,07,02,06,15,15.90
2015,07,02,06,16,15.90
2015,07,02,06,17,15.90
2015,07,02,06,18,15.90
2015,07,02,06,19,15.90
2015,07,02,06,20,16.00
2015,07,02,06,21,16.00
2015,07,02,06,22,16.10
2015,07,02,06,23,16.10
2015,07,02,06,24,16.10
2015,07,02,06,25,16.20
2015,07,02,06,26,16.20
2015,07,02,06,27,16.30
2015,07,02,06,28,16.30
2015,07,02,06,29,16.40
2015,07,02,06,30,16.40
2015,07,02,06,31,16.50
2015,07,02,06,32,16.50
2015,07,02,06,33,16.60
2015,07,02,06,34,16.60
2015,07,02,06,35,16.60
2015,07,02,06,36,16.70
2015,07,02,06,37,16.70
2015,07,02,06,38,16.80
2015,07,02,06,39,16.80
2015,07,02,06,40,16.80
2015,07,02,06,41,16.90
2015,07,02,06,42,17.00
2015,07,02,06,43,17.10
2015,07,02,06,44,17.10
2015,07,02,06,45,17.20
2015,07,02,06,46,17.30
2015,07,02,06,47,17.30
2015,07,02,06,48,17.40
2015,07,02,06,49,17.40
2015,07,02,06,50,17.50
2015,07,02,06,51,17.60
2015,07,02,06,52,17.70
2015,07,02,06,53,17.80
2015,07,02,06,54,17.80
2015,07,02,06,55,17.90
2015,07,02,06,56,17.90
2015,07,02,06,57,18.00
2015,07,02,06,58,18.10
2015,07,02,06,59,18.10
2015,07,02,07,00,18.20
2015,07,02,07,01,18.20
2015,07,02,07,02,18.30
2015,07,02,07,03,18.30
2015,07,02,07,04,18.40
2015,07,02,07,05,18.60
2015,07,02,07,06,18.70
2015,07,02,07,07,18.80
2015,07,02,07,08,19.00
2015,07,02,07,09,19.10
2015,07,02,07,10,19.20
2015,07,02,07,11,19.30
2015,07,02,07,12,19.30
2015,07,02,07,13,19.40
2015,07,02,07,14,19.50
2015,07,02,07,15,19.70
2015,07,02,07,16,19.80
2015,07,02,07,17,19.90
2015,07,02,07,18,20.00
2015,07,02,07,19,20.20
2015,07,02,07,20,20.20
2015,07,02,07,21,20.30
2015,07,02,07,22,20.40
2015,07,02,07,23,20.40
2015,07,02,07,24,20.50
2015,07,02,07,25,20.60
2015,07,02,07,26,20.60
2015,07,02,07,27,20.60
2015,07,02,07,28,20.70
2015,07,02,07,29,20.80
2015,07,02,07,30,20.80
2015,07,02,07,31,21.00
2015,07,02,07,32,21.10
2015,07,02,07,33,21.20
2015,07,02,07,34,21.30
2015,07,02,07,35,21.40
2015,07,02,07,36,21.40
2015,07,02,07,37,21.50
2015,07,02,07,38,21.60
2015,07,02,07,39,21.60
2015,07,02,07,40,21.70
2015,07,02,07,41,21.70
2015,07,02,07,42,21.80
2015,07,02,07,43,21.90
2015,07,02,07,44,21.90
2015,07,02,07,45,22.00
2015,07,02,07,46,22.00
2015,07,02,07,47,22.00
2015,07,02,07,48,22.10
2015,07,02,07,49,22.10
2015,07,02,07,50,22.10
2015,07,02,07,51,22.20
2015,07,02,07,52,22.20
2015,07,02,07,53,22.30
2015,07,02,07,54,22.40
2015,07,02,07,55,22.40
2015,07,02,07,56,22.50
2015,07,02,07,57,22.50
2015,07,02,07,58,22.60
2015,07,02,07,59,22.70
2015,07,02,08,00,22.70
2015,07,02,08,01,22.80
2015,07,02,08,02,22.90
2015,07,02,08,03,23.00
2015,07,02,08,04,23.10
2015,07,02,08,05,23.20
2015,07,02,08,06,23.20
2015,07,02,08,07,23.20
2015,07,02,08,08,23.20
2015,07,02,08,09,23.20
2015,07,02,08,10,23.20
2015,07,02,08,11,23.20
2015,07,02,08,12,23.20
2015,07,02,08,13,23.20
2015,07,02,08,14,23.20
2015,07,02,08,15,23.10
2015,07,02,08,16,23.10
2015,07,02,08,17,23.10
2015,07,02,08,18,23.00
2015,07,02,08,19,22.90
2015,07,02,08,20,22.90
2015,07,02,08,21,22.90
2015,07,02,08,22,23.00
2015,07,02,08,23,23.00
2015,07,02,08,24,23.10
2015,07,02,08,25,23.10
2015,07,02,08,26,23.20
2015,07,02,08,27,23.20
2015,07,02,08,28,23.30
2015,07,02,08,29,23.30
2015,07,02,08,30,23.40
2015,07,02,08,31,23.40
2015,07,02,08,32,23.40
2015,07,02,08,33,23.30
2015,07,02,08,34,23.30
2015,07,02,08,35,23.20
2015,07,02,08,36,23.20
2015,07,02,08,37,23.20
2015,07,02,08,38,23.20
2015,07,02,08,39,23.20
2015,07,02,08,40,23.10
2015,07,02,08,41,23.10
2015,07,02,08,42,23.10
2015,07,02,08,43,23.10
2015,07,02,08,44,23.10
2015,07,02,08,45,23.10
2015,07,02,08,46,23.20
2015,07,02,08,47,23.20
2015,07,02,08,48,23.20
2015,07,02,08,49,23.30
2015,07,02,08,50,23.30
2015,07,02,08,51,23.30
2015,07,02,08,52,23.30
2015,07,02,08,53,23.30
2015,07,02,08,54,23.30
2015,07,02,08,55,23.20
2015,07,02,08,56,23.30
2015,07,02,08,57,23.30
2015,07,02,08,58,23.30
2015,07,02,08,59,23.40
2015,07,02,09,00,23.50
2015,07,02,09,01,23.60
2015,07,02,09,02,23.70
2015,07,02,09,03,23.70
2015,07,02,09,04,23.70
2015,07,02,09,05,23.70
2015,07,02,09,06,23.70
2015,07,02,09,07,23.70
2015,07,02,09,08,23.60
2015,07,02,09,09,23.60
2015,07,02,09,10,23.60
2015,07,02,09,11,23.60
2015,07,02,09,12,23.60
2015,07,02,09,13,23.60
2015,07,02,09,14,23.70
2015,07,02,09,15,23.60
2015,07,02,09,16,23.70
2015,07,02,09,17,23.70
2015,07,02,09,18,23.70
2015,07,02,09,19,23.70
2015,07,02,09,20,23.70
2015,07,02,09,21,23.70
2015,07,02,09,22,23.60
2015,07,02,09,23,23.60
2015,07,02,09,24,23.50
2015,07,02,09,25,23.50
2015,07,02,09,26,23.40
2015,07,02,09,27,23.50
2015,07,02,09,28,23.50
2015,07,02,09,29,23.50
2015,07,02,09,30,23.50
2015,07,02,09,31,23.40
2015,07,02,09,32,23.40
2015,07,02,09,33,23.40
2015,07,02,09,34,23.40
2015,07,02,09,35,23.40
2015,07,02,09,36,23.40
2015,07,02,09,37,23.40
2015,07,02,09,38,23.40
2015,07,02,09,39,23.40
2015,07,02,09,40,23.50
2015,07,02,09,41,23.50
2015,07,02,09,42,23.60
2015,07,02,09,43,23.60
2015,07,02,09,44,23.60
2015,07,02,09,45,23.70
2015,07,02,09,46,23.70
2015,07,02,09,47,23.80
2015,07,02,09,48,23.80
2015,07,02,09,49,23.80
2015,07,02,09,50,23.80
2015,07,02,09,51,23.80
2015,07,02,09,52,23.80
2015,07,02,09,53,23.70
2015,07,02,09,54,23.70
2015,07,02,09,55,23.70
2015,07,02,09,56,23.70
2015,07,02,09,57,23.80
2015,07,02,09,58,23.80
2015,07,02,09,59,23.80
2015,07,02,10,00,23.70
2015,07,02,10,01,23.70
2015,07,02,10,02,23.70
2015,07,02,10,03,23.70
2015,07,02,10,04,23.70
2015,07,02,10,05,23.80
2015,07,02,10,06,23.80
2015,07,02,10,07,23.90
2015,07,02,10,08,23.90
2015,07,02,10,09,24.00
2015,07,02,10,10,24.10
2015,07,02,10,11,24.00
2015,07,02,10,12,23.80
2015,07,02,10,13,23.70
2015,07,02,10,14,23.70
2015,07,02,10,15,23.70
2015,07,02,10,16,23.70
2015,07,02,10,17,23.80
2015,07,02,10,18,23.80
2015,07,02,10,19,23.70
2015,07,02,10,20,23.60
2015,07,02,10,21,23.50
2015,07,02,10,22,23.40
2015,07,02,10,23,23.30
2015,07,02,10,24,23.20
2015,07,02,10,25,23.20
2015,07,02,10,26,23.20
2015,07,02,10,27,23.20
2015,07,02,10,28,23.20
2015,07,02,10,29,23.20
2015,07,02,10,30,23.20
2015,07,02,10,31,23.20
2015,07,02,10,32,23.20
2015,07,02,10,33,23.20
2015,07,02,10,34,23.20
2015,07,02,10,35,23.20
2015,07,02,10,36,23.30
2015,07,02,10,37,23.40
2015,07,02,10,38,23.50
2015,07,02,10,39,23.60
2015,07,02,10,40,23.70
2015,07,02,10,41,23.80
2015,07,02,10,42,23.90
2015,07,02,10,43,24.00
2015,07,02,10,44,24.10
2015,07,02,10,45,24.10
2015,07,02,10,46,24.20
2015,07,02,10,47,24.20
2015,07,02,10,48,24.20
2015,07,02,10,49,24.20
2015,07,02,10,50,24.20
2015,07,02,10,51,24.30
2015,07,02,10,52,24.30
2015,07,02,10,53,24.30
2015,07,02,10,54,24.40
2015,07,02,10,55,24.50
2015,07,02,10,56,24.60
2015,07,02,10,57,24.60
2015,07,02,10,58,24.70
2015,07,02,10,59,24.80
2015,07,02,11,00,24.80
2015,07,02,11,01,24.90
2015,07,02,11,02,25.00
2015,07,02,11,03,25.10
2015,07,02,11,04,25.20
2015,07,02,11,05,25.20
2015,07,02,11,06,25.30
2015,07,02,11,07,25.50
2015,07,02,11,08,25.60
2015,07,02,11,09,25.50
2015,07,02,11,10,25.50
2015,07,02,11,11,25.40
2015,07,02,11,12,25.40
2015,07,02,11,13,25.40
2015,07,02,11,14,25.40
2015,07,02,11,15,25.50
2015,07,02,11,16,25.50
2015,07,02,11,17,25.50
2015,07,02,11,18,25.50
2015,07,02,11,19,25.40
2015,07,02,11,20,25.40
2015,07,02,11,21,25.40
2015,07,02,11,22,25.40
2015,07,02,11,23,25.40
2015,07,02,11,24,25.50
2015,07,02,11,25,25.60
2015,07,02,11,26,25.60
2015,07,02,11,27,25.60
2015,07,02,11,28,25.70
2015,07,02,11,29,25.80
2015,07,02,11,30,25.80
2015,07,02,11,31,25.80
2015,07,02,11,32,25.80
2015,07,02,11,33,25.90
2015,07,02,11,34,25.90
2015,07,02,11,35,26.00
2015,07,02,11,36,26.00
2015,07,02,11,37,26.10
2015,07,02,11,38,26.20
2015,07,02,11,39,26.30
2015,07,02,11,40,26.50
2015,07,02,11,41,26.60
2015,07,02,11,42,26.70
2015,07,02,11,43,26.70
2015,07,02,11,44,26.70
2015,07,02,11,45,26.70
2015,07,02,11,46,26.80
2015,07,02,11,47,26.80
2015,07,02,11,48,26.70
2015,07,02,11,49,26.70
2015,07,02,11,50,26.70
2015,07,02,11,51,26.80
2015,07,02,11,52,26.90
2015,07,02,11,53,26.90
2015,07,02,11,54,27.10
2015,07,02,11,55,27.20
2015,07,02,11,56,27.30
2015,07,02,11,57,27.40
2015,07,02,11,58,27.40
2015,07,02,11,59,27.30
2015,07,02,12,00,27.20
2015,07,02,12,01,27.20
2015,07,02,12,02,27.20
2015,07,02,12,03,27.20
2015,07,02,12,04,27.10
2015,07,02,12,05,27.10
2015,07,02,12,06,27.10
2015,07,02,12,07,27.20
2015,07,02,12,08,27.20
2015,07,02,12,09,27.30
2015,07,02,12,10,27.20
2015,07,02,12,11,27.30
2015,07,02,12,12,27.30
2015,07,02,12,13,27.30
2015,07,02,12,14,27.40
2015,07,02,12,15,27.40
2015,07,02,12,16,27.40
2015,07,02,12,17,27.40
2015,07,02,12,18,27.20
2015,07,02,12,19,27.10
2015,07,02,12,20,26.90
2015,07,02,12,21,26.80
2015,07,02,12,22,26.70
2015,07,02,12,23,26.70
2015,07,02,12,24,26.60
2015,07,02,12,25,26.60
2015,07,02,12,26,26.60
2015,07,02,12,27,26.60
2015,07,02,12,28,26.60
2015,07,02,12,29,26.70
2015,07,02,12,30,26.80
2015,07,02,12,31,26.80
2015,07,02,12,32,26.80
2015,07,02,12,33,26.90
2015,07,02,12,34,26.90
2015,07,02,12,35,26.90
2015,07,02,12,36,27.00
2015,07,02,12,37,27.00
2015,07,02,12,38,27.10
2015,07,02,12,39,27.10
2015,07,02,12,40,27.10
2015,07,02,12,41,27.00
2015,07,02,12,42,26.90
2015,07,02,12,43,26.80
2015,07,02,12,44,26.70
2015,07,02,12,45,26.60
2015,07,02,12,46,26.50
2015,07,02,12,47,26.40
2015,07,02,12,48,26.40
2015,07,02,12,49,26.50
2015,07,02,12,50,26.50
2015,07,02,12,51,26.60
2015,07,02,12,52,26.60
2015,07,02,12,53,26.60
2015,07,02,12,54,26.60
2015,07,02,12,55,26.70
2015,07,02,12,56,26.70
2015,07,02,12,57,26.70
2015,07,02,12,58,26.70
2015,07,02,12,59,26.70
2015,07,02,13,00,26.70
2015,07,02,13,01,26.70
2015,07,02,13,02,26.70
2015,07,02,13,03,26.60
2015,07,02,13,04,26.60
2015,07,02,13,05,26.50
2015,07,02,13,06,26.60
2015,07,02,13,07,26.60
2015,07,02,13,08,26.60
2015,07,02,13,09,26.60
2015,07,02,13,10,26.60
2015,07,02,13,11,26.60
2015,07,02,13,12,26.60
2015,07,02,13,13,26.60
2015,07,02,13,14,26.70
2015,07,02,13,15,26.70
2015,07,02,13,16,26.80
2015,07,02,13,17,26.80
2015,07,02,13,18,26.80
2015,07,02,13,19,26.70
2015,07,02,13,20,26.80
2015,07,02,13,21,26.90
2015,07,02,13,22,26.90
2015,07,02,13,23,27.00
2015,07,02,13,24,27.00
2015,07,02,13,25,27.10
2015,07,02,13,26,27.20
2015,07,02,13,27,27.30
2015,07,02,13,28,27.40
2015,07,02,13,29,27.50
2015,07,02,13,30,27.60
2015,07,02,13,31,27.60
2015,07,02,13,32,27.60
2015,07,02,13,33,27.60
2015,07,02,13,34,27.60
2015,07,02,13,35,27.60
2015,07,02,13,36,27.70
2015,07,02,13,37,27.70
2015,07,02,13,38,27.80
2015,07,02,13,39,27.80
2015,07,02,13,40,27.90
2015,07,02,13,41,28.00
2015,07,02,13,42,28.10
2015,07,02,13,43,28.20
2015,07,02,13,44,28.30
2015,07,02,13,45,28.40
2015,07,02,13,46,28.50
2015,07,02,13,47,28.60
2015,07,02,13,48,28.70
2015,07,02,13,49,28.80
2015,07,02,13,50,28.80
2015,07,02,13,51,28.80
2015,07,02,13,52,28.80
2015,07,02,13,53,28.80
2015,07,02,13,54,28.90
2015,07,02,13,55,29.00
2015,07,02,13,56,29.00
2015,07,02,13,57,29.20
2015,07,02,13,58,29.20
2015,07,02,13,59,29.20
2015,07,02,14,00,29.20
2015,07,02,14,01,29.20
2015,07,02,14,02,29.20
2015,07,02,14,03,29.30
2015,07,02,14,04,29.40
2015,07,02,14,05,29.50
2015,07,02,14,06,29.70
2015,07,02,14,07,29.80
2015,07,02,14,08,29.80
2015,07,02,14,09,29.80
2015,07,02,14,10,29.90
2015,07,02,14,11,29.90
2015,07,02,14,12,29.90
2015,07,02,14,13,29.80
2015,07,02,14,14,29.80
2015,07,02,14,15,29.70
2015,07,02,14,16,29.60
2015,07,02,14,17,29.60
2015,07,02,14,18,29.60
2015,07,02,14,19,29.70
2015,07,02,14,20,29.70
2015,07,02,14,21,29.70
2015,07,02,14,22,29.80
2015,07,02,14,23,29.80
2015,07,02,14,24,29.70
2015,07,02,14,25,29.70
2015,07,02,14,26,29.60
2015,07,02,14,27,29.60
2015,07,02,14,28,29.50
2015,07,02,14,29,29.50
2015,07,02,14,30,29.50
2015,07,02,14,31,29.40
2015,07,02,14,32,29.30
2015,07,02,14,33,29.20
2015,07,02,14,34,29.00
2015,07,02,14,35,28.90
2015,07,02,14,36,28.90
2015,07,02,14,37,28.90
2015,07,02,14,38,28.90
2015,07,02,14,39,28.90
2015,07,02,14,40,28.90
2015,07,02,14,41,28.90
2015,07,02,14,42,28.90
2015,07,02,14,43,29.00
2015,07,02,14,44,29.00
2015,07,02,14,45,29.00
2015,07,02,14,46,29.00
2015,07,02,14,47,28.90
2015,07,02,14,48,28.90
2015,07,02,14,49,29.00
2015,07,02,14,50,29.00
2015,07,02,14,51,29.10
2015,07,02,14,52,29.10
2015,07,02,14,53,29.20
2015,07,02,14,54,29.20
2015,07,02,14,55,29.20
2015,07,02,14,56,29.10
2015,07,02,14,57,29.10
2015,07,02,14,58,29.10
2015,07,02,14,59,29.10
2015,07,02,15,00,29.10
2015,07,02,15,01,29.10
2015,07,02,15,02,29.00
2015,07,02,15,03,29.00
2015,07,02,15,04,29.00
2015,07,02,15,05,28.90
2015,07,02,15,06,28.80
2015,07,02,15,07,28.60
2015,07,02,15,08,28.40
2015,07,02,15,09,28.30
2015,07,02,15,10,28.30
2015,07,02,15,11,28.40
2015,07,02,15,12,28.50
2015,07,02,15,13,28.60
2015,07,02,15,14,28.70
2015,07,02,15,15,28.60
2015,07,02,15,16,28.40
2015,07,02,15,17,28.30
2015,07,02,15,18,28.30
2015,07,02,15,19,28.20
2015,07,02,15,20,28.20
2015,07,02,15,21,28.20
2015,07,02,15,22,28.10
2015,07,02,15,23,28.10
2015,07,02,15,24,28.00
2015,07,02,15,25,27.80
2015,07,02,15,26,27.70
2015,07,02,15,27,27.50
2015,07,02,15,28,27.40
2015,07,02,15,29,27.40
2015,07,02,15,30,27.40
2015,07,02,15,31,27.30
2015,07,02,15,32,27.30
2015,07,02,15,33,27.30
2015,07,02,15,34,27.30
2015,07,02,15,35,27.30
2015,07,02,15,36,27.30
2015,07,02,15,37,27.40
2015,07,02,15,38,27.40
2015,07,02,15,39,27.50
2015,07,02,15,40,27.60
2015,07,02,15,41,27.60
2015,07,02,15,42,27.60
2015,07,02,15,43,27.60
2015,07,02,15,44,27.60
2015,07,02,15,45,27.60
2015,07,02,15,46,27.70
2015,07,02,15,47,27.70
2015,07,02,15,48,27.60
2015,07,02,15,49,27.60
2015,07,02,15,50,27.60
2015,07,02,15,51,27.70
2015,07,02,15,52,27.70
2015,07,02,15,53,27.70
2015,07,02,15,54,27.70
2015,07,02,15,55,27.70
2015,07,02,15,56,27.70
2015,07,02,15,57,27.80
2015,07,02,15,58,27.80
2015,07,02,15,59,27.90
2015,07,02,16,00,27.80
2015,07,02,16,01,27.80
2015,07,02,16,02,27.80
2015,07,02,16,03,27.80
2015,07,02,16,04,27.70
2015,07,02,16,05,27.70
2015,07,02,16,06,27.70
2015,07,02,16,07,27.70
2015,07,02,16,08,27.80
2015,07,02,16,09,27.80
2015,07,02,16,10,27.80
2015,07,02,16,11,27.80
2015,07,02,16,12,27.90
2015,07,02,16,13,27.90
2015,07,02,16,14,28.00
2015,07,02,16,15,28.00
2015,07,02,16,16,28.00
2015,07,02,16,17,28.10
2015,07,02,16,18,28.10
2015,07,02,16,19,28.10
2015,07,02,16,20,28.10
2015,07,02,16,21,28.00
2015,07,02,16,22,28.00
2015,07,02,16,23,28.00
2015,07,02,16,24,28.10
2015,07,02,16,25,28.10
2015,07,02,16,26,28.10
2015,07,02,16,27,28.00
2015,07,02,16,28,27.90
2015,07,02,16,29,27.90
2015,07,02,16,30,28.00
2015,07,02,16,31,28.10
2015,07,02,16,32,28.10
2015,07,02,16,33,28.00
2015,07,02,16,34,28.00
2015,07,02,16,35,28.00
2015,07,02,16,36,28.00
2015,07,02,16,37,28.10
2015,07,02,16,38,28.10
2015,07,02,16,39,28.00
2015,07,02,16,40,28.00
2015,07,02,16,41,28.00
2015,07,02,16,42,28.00
2015,07,02,16,43,28.10
2015,07,02,16,44,28.10
2015,07,02,16,45,28.10
2015,07,02,16,46,28.10
2015,07,02,16,47,28.10
2015,07,02,16,48,28.10
2015,07,02,16,49,28.00
2015,07,02,16,50,28.00
2015,07,02,16,51,27.90
2015,07,02,16,52,27.90
2015,07,02,16,53,27.90
2015,07,02,16,54,27.90
2015,07,02,16,55,28.00
2015,07,02,16,56,28.00
2015,07,02,16,57,27.90
2015,07,02,16,58,27.80
2015,07,02,16,59,27.70
2015,07,02,17,00,27.70
2015,07,02,17,01,27.70
2015,07,02,17,02,27.80
2015,07,02,17,03,27.80
2015,07,02,17,04,27.70
2015,07,02,17,05,27.60
2015,07,02,17,06,27.50
2015,07,02,17,07,27.40
2015,07,02,17,08,27.40
2015,07,02,17,09,27.40
2015,07,02,17,10,27.30
2015,07,02,17,11,27.30
2015,07,02,17,12,27.30
2015,07,02,17,13,27.20
2015,07,02,17,14,27.10
2015,07,02,17,15,26.90
2015,07,02,17,16,26.70
2015,07,02,17,17,26.50
2015,07,02,17,18,26.40
2015,07,02,17,19,26.30